www.pogodaiklimat.ru
ПОГОДА в Кастело Бранко
Время
(UTC), дата
16 4.12
17 4.12
18 4.12
19 4.12
20 4.12
21 4.12
22 4.12
23 4.12
00 5.12
01 5.12
02 5.12
03 5.12
04 5.12
05 5.12
06 5.12
07 5.12
08 5.12
09 5.12
10 5.12
11 5.12
12 5.12
13 5.12
14 5.12
15 5.12
16 5.12
17 5.12
18 5.12
19 5.12
20 5.12
21 5.12
22 5.12
23 5.12
00 6.12
01 6.12
02 6.12
03 6.12
04 6.12
05 6.12
06 6.12
07 6.12
08 6.12
09 6.12
10 6.12
11 6.12
12 6.12
13 6.12
14 6.12
15 6.12
16 6.12
17 6.12
18 6.12
19 6.12
20 6.12
21 6.12
22 6.12
23 6.12
00 7.12
01 7.12
02 7.12
03 7.12
04 7.12
05 7.12
06 7.12
07 7.12
08 7.12
09 7.12
10 7.12
11 7.12
12 7.12
13 7.12
14 7.12
15 7.12
16 7.12
17 7.12
18 7.12
19 7.12
20 7.12
21 7.12
22 7.12
23 7.12
00 8.12
01 8.12
02 8.12
03 8.12
04 8.12
05 8.12
06 8.12
07 8.12
08 8.12
09 8.12
10 8.12
11 8.12
12 8.12
13 8.12
14 8.12
15 8.12
16 8.12
17 8.12
18 8.12
19 8.12
20 8.12
21 8.12
22 8.12
23 8.12
00 9.12
01 9.12
02 9.12
03 9.12
04 9.12
05 9.12
06 9.12
07 9.12
08 9.12
09 9.12
10 9.12
11 9.12
12 9.12
13 9.12
14 9.12
15 9.12
16 9.12
17 9.12
18 9.12
19 9.12
20 9.12
21 9.12
22 9.12
23 9.12
00 10.12
01 10.12
02 10.12
03 10.12
04 10.12
05 10.12
06 10.12
07 10.12
08 10.12
09 10.12
10 10.12
11 10.12
12 10.12
13 10.12
14 10.12
15 10.12
16 10.12
17 10.12
18 10.12
19 10.12
20 10.12
21 10.12
22 10.12
23 10.12
00 11.12
01 11.12
02 11.12
03 11.12
04 11.12
05 11.12
06 11.12
07 11.12
08 11.12
09 11.12
10 11.12
11 11.12
12 11.12
13 11.12
14 11.12
15 11.12
16 11.12
17 11.12
Ветер
(напр.,м/с)
Видим. Явления Облачность Т
(С)
Тd
(С)
f
(%)
Тe
(С)
Тes
(С)
Комфортность P
(гПа)
Po
(гПа)
Тmin
(С)
Tmax
(С)
R
(мм)
R24
(мм)
S
(см)
СВ 5-8
{8}
25 км 5/5 500 м
[Cu Sc Ac und]
+13.0 +3.4 52 +11 +11 1009.8 964.7
СВ 4-7
{8}
25 км 6/5 500 м
[Cu Sc Ac trans]
+11.2 +3.2 58 +9 +9 1010.4 965.0
С 4
{7}
25 км 8/4 500 м
[Cu Sc Ac trans Ci fib]
+10.1 +3.6 64 +8 +8 1011.4 965.7 +13.1
С 5-7
{8}
25 км 10/5 600 м
[Sc diur, vesp Ac As]
+9.6 +3.8 67 +7 +7 1012.0 966.3
С 4-6
{7}
н/о н/о +9.1 +4.0 70 +6 +6 1012.6 966.7
С 2
{6}
н/о н/о +8.4 +4.1 74 +7 +7 1013.2 967.2
С 2 н/о н/о +8.3 +4.0 74 +7 +7 1013.8 967.7
С 3
{5}
н/о н/о +8.5 +4.3 75 +6 +6 1014.1 968.0
С 4-7
{7}
н/о н/о +8.7 +4.5 75 +6 +6 1014.4 968.4
С 4
{8}
н/о н/о +9.0 +4.3 72 +6 +6 1014.3 968.3
С 3
{7}
н/о н/о +8.7 +4.2 73 +6 +6 1014.3 968.3
С 4-7
{7}
н/о н/о +8.8 +3.4 69 +6 +6 1015.1 969.1
С 4-7
{7}
н/о н/о +8.9 +2.6 65 +6 +6 1015.4 969.3
З 2
{7}
н/о н/о +8.1 +1.8 64 +6 +6 1015.6 969.4
С 4-8
{8}
н/о н/о +8.2 +2.4 67 +5 +5 1015.8 969.7 +7.5
С 5
{8}
н/о н/о +8.0 +2.8 70 +4 +4 1017.1 970.8

{7}
н/о н/о +7.7 +2.7 71 1018.0 971.6
С 4-7
{7}
30 км 1/1 600 м
[Cu hum Cs]
+9.1 +3.6 68 +6 +7 1018.4 972.2
С 5-8
{8}
30 км 3/1 600 м
[Cu hum Ac lent Ci sp]
+10.8 +4.1 63 +8 +9 1018.6 972.7
С 5-8
{9}
30 км 1/1 600 м
[Cu hum Ac lent Cs]
+12.1 +4.6 60 +10 +12 1019.0 973.3
СВ 4-7
{8}
30 км 1/1 600 м
[Cu hum Ac lent Cs]
+13.4 +5.0 57 +12 +15 1018.3 972.8
СВ 3-6
{6}
30 км 1/1 600 м
[Cu hum Ac lent Ci fib]
+14.4 +5.5 55 +14 +17 1017.5 972.3
В 3
{6}
30 км 1/1 600 м
[Cu hum Ci fib]
+14.8 +5.7 54 +14 +17 1017.3 972.1
С 2
{6}
30 км 1/1 600 м
[Cu hum Ci fib]
+15.0 +5.3 52 +15 +17 1016.8 971.6
СВ 4
{6}
30 км 1/1 600 м
[Cu hum]
+14.3 +5.7 56 +13 +14 1017.4 972.1
С 4
{7}
30 км 1/1 600 м
[Cu hum]
+12.1 +5.4 64 +10 +10 1018.1 972.5
СВ 3-6
{7}
25 км 1/1 600 м
[Cu hum]
+11.0 +5.2 67 +9 +9 1019.2 973.3 +15.2
СВ 4-7
{7}
25 км ясно +10.0 +4.8 70 +7 +7 1020.3 974.3
С 4-6
{6}
н/о н/о +9.3 +4.8 73 +7 +7 1021.0 974.8
С 4
{6}
н/о н/о +9.1 +4.8 74 +6 +6 1021.2 974.9
СВ 3-5
{6}
н/о н/о +9.0 +4.9 75 +7 +7 1021.0 974.8
С 2
{5}
н/о н/о +7.6 +4.8 82 +6 +6 1022.3 975.8
СВ 2
{5}
н/о н/о +8.6 +4.2 74 +7 +7 1021.9 975.6
С 3
{6}
н/о н/о +8.1 +4.2 76 +6 +6 1021.9 975.5
С 3
{5}
н/о н/о +7.6 +4.5 81 +5 +5 1021.8 975.3
СВ 3-5
{6}
н/о н/о +7.8 +4.3 79 +5 +5 1022.1 975.6
СВ 4 н/о н/о +7.5 +4.2 80 +4 +4 1022.3 975.7
С 2
{6}
н/о н/о +7.9 +4.1 77 +6 +6 1022.1 975.6
СВ 3
{6}
н/о н/о +7.2 +4.2 81 +4 +4 1022.8 976.1 +7.0
С 4-6
{7}
н/о н/о +7.0 +4.1 82 +3 +3 1023.3 976.6
С 2
{5}
н/о н/о +6.4 +4.1 85 +4 +4 1023.6 976.8
С 3 30 км 3/0
[Cs]
+8.6 +4.7 76 +6 +7 1024.4 977.9
СВ 2-6
{6}
30 км 1/0
[Cs]
+12.3 +5.6 64 +12 +14 1024.2 978.3
В 4-7
{7}
30 км 3/0
[Cs]
+13.2 +6.0 62 +12 +14 1023.9 978.1
В 3-5
{7}
30 км 4/1 600 м
[Cu hum Ac trans Cs]
+14.0 +6.1 59 +13 +16 1023.4 977.8
СВ 3
{6}
30 км 5/1 600 м
[Cu hum Ac trans Cs]
+14.6 +6.4 58 +14 +16 1022.7 977.2
В 3
{5}
30 км 5/1 600 м
[Cu hum Ac trans Cs]
+15.3 +5.9 53 +15 +17 1021.6 976.2
С 2 30 км 6/1 600 м
[Cu hum Ac und Cs]
+15.1 +6.1 55 +15 +16 1021.3 976.0
С 1 30 км 4/1 600 м
[Cu hum Ac trans Cs]
+14.7 +5.8 55 +15 +16 1021.4 976.0
С 1 30 км 3/1 600 м
[Cu hum Ac lent Cs]
+13.0 +5.8 62 +13 +13 1021.7 976.1
СВ 2 30 км 1/1 600 м
[Cu hum Ac lent Cs]
+12.6 +5.8 63 +12 +12 1022.1 976.3 +15.9
СЗ 2 30 км ясно +10.1 +5.4 73 +9 +9 1023.2 977.0
н/о н/о +9.5 +6.0 79 1023.9 977.6
СВ 3
{5}
н/о н/о +9.9 +5.1 72 +8 +8 1024.0 977.7
СВ 2 н/о н/о +9.0 +4.7 74 +7 +7 1024.4 978.0
н/о н/о +7.9 +4.4 79 1025.0 978.4
СВ 2 н/о н/о +7.8 +4.3 79 +6 +6 1024.7 978.1
С 2 н/о н/о +7.4 +4.7 83 +5 +5 1024.7 978.0
С 2 н/о н/о +7.1 +5.1 87 +5 +5 1024.8 978.1
СВ 2 н/о н/о +8.2 +4.5 77 +6 +6 1024.5 978.0
С 1 н/о н/о +7.5 +4.7 82 +7 +7 1024.5 977.9
С 1 н/о н/о +7.0 +5.9 93 +6 +6 1024.7 978.0
С 1 н/о н/о +7.2 +6.2 93 +6 +6 1025.0 978.3 +5.7
СЗ 1 н/о н/о +6.3 +5.9 97 +5 +5 1025.6 978.7
С 1 н/о н/о +5.7 +5.7 100 +4 +4 1025.8 978.8
С 1 30 км 3/0 2000 м
[Ac trans Ci sp]
+9.0 +5.7 80 +8 +9 1025.9 979.4
н/о н/о +11.2 +6.7 74 1026.3 980.2
штиль 0 н/о н/о +12.7 +6.5 66 +12 +12 1026.1 980.2
штиль 0 н/о н/о +13.2 +6.4 63 +13 +13 1025.5 979.7
н/о н/о +14.4 +7.0 61 1024.6 979.0
С 1 н/о н/о +15.0 +6.8 58 +16 +16 1023.9 978.5
С 2 н/о н/о +14.5 +6.9 60 +14 +14 1023.8 978.2
ЮВ 1 н/о н/о +14.1 +7.2 63 +15 +15 1024.0 978.4
Ю 1 н/о н/о +12.6 +7.0 69 +13 +13 1024.6 978.8
ЮЗ 1 н/о н/о +11.9 +6.8 71 +12 +12 1025.0 979.0 +15.8
ЮЗ 1 н/о н/о +11.3 +7.2 76 +11 +11 1025.4 979.3
ЮЗ 2 н/о н/о +11.8 +7.1 73 +11 +11 1025.6 979.5
З 1 н/о н/о +10.3 +6.9 79 +10 +10 1026.3 980.0
штиль 0 н/о н/о +9.8 +7.5 86 +9 +9 1026.6 980.2
З 1 н/о н/о +8.2 +8.2 100 +7 +7 1027.0 980.3
СЗ 1 н/о н/о +6.5 +6.5 100 +5 +5 1027.4 980.5
ЮВ 2 н/о н/о +7.1 +7.1 100 +5 +5 1027.0 980.1
З 2 н/о н/о +5.5 +5.5 100 +3 +3 1027.5 980.4
СЗ 1 н/о н/о +5.4 +5.4 100 +4 +4 1027.3 980.2
н/о н/о +5.9 +5.9 100 1026.8 979.8
штиль 0 н/о н/о +6.5 +6.5 100 +5 +5 1026.6 979.7
ЮВ 1 н/о н/о +6.3 +6.3 100 +5 +5 1026.8 979.8 +4.7
ЮВ 1 н/о н/о +6.5 +6.5 100 +5 +5 1027.4 980.4
ЮВ 2 н/о н/о +6.3 +6.3 100 +4 +4 1027.8 980.8
штиль 0 н/о н/о +7.2 +7.2 100 +6 +6 1027.9 981.1
штиль 0 н/о н/о +8.1 +8.1 100 +7 +7 1028.3 981.6
С 1 н/о н/о +9.9 +9.9 100 +9 +9 1028.0 981.6
С 1 н/о н/о +12.3 +9.1 81 +12 +12 1027.1 981.1
ЮВ 2 н/о н/о +12.3 +10.2 87 +11 +11 1026.5 980.5
ЮВ 1 н/о н/о +11.2 +11.2 100 +11 +11 1026.5 980.3 0.1
ЮВ 1 н/о н/о +10.6 +10.6 100 +10 +10 1026.5 980.2 0.6
ЮВ 1 н/о н/о +10.8 +10.8 100 +10 +10 1026.6 980.4 0.1
н/о н/о +10.9 +10.9 100 1026.8 980.6
штиль 0 н/о н/о +10.8 +10.8 100 +10 +10 1027.3 981.0 +12.8 0.8
штиль 0 н/о н/о +10.8 +10.8 100 +10 +10 1027.6 981.3
н/о н/о +10.8 +10.8 100 1028.3 982.0
С 1 н/о н/о +11.0 +11.0 100 +11 +11 1028.5 982.2 0.8
СВ 1 н/о н/о +10.9 +10.9 100 +10 +10 1028.7 982.4
штиль 0 н/о н/о +10.8 +10.8 100 +10 +10 1028.9 982.6
С 1 н/о н/о +10.4 +10.4 100 +10 +10 1029.2 982.8 0.1
СЗ 2 н/о н/о +10.0 +10.0 100 +8 +8 1029.2 982.8
СЗ 1 н/о н/о +8.9 +8.9 100 +8 +8 1029.7 983.0
штиль 0 н/о н/о +7.5 +7.5 100 +6 +6 1029.9 983.0
С 1 н/о н/о +8.8 +8.8 100 +8 +8 1029.6 982.9 0.1
СЗ 1 н/о н/о +7.7 +7.7 100 +7 +7 1029.9 983.0
З 2 н/о н/о +5.2 +5.2 100 +2 +2 1030.6 983.3 +4.9 0.2
З 2 н/о н/о +3.7 +3.7 100 +1 +1 1031.3 983.7
штиль 0 н/о н/о +4.4 +4.4 100 +3 +3 1031.8 984.3
С 1 500 м туман 4/3 60 м
[St Cs]
+6.1 +6.1 100 +5 +5 1032.1 984.8
штиль 0 2000 м в посл. час туман 4/1 90 м
[St Ac trans Ci sp]
+9.3 +9.3 100 +8 +10 1032.2 985.4
СЗ 1 25 км 3/1 600 м
[Sc diur, vesp Ac lent Ci sp]
+11.2 +11.2 100 +11 +14 1032.1 985.7
С 1 25 км {туман} 4/1 600 м
[Sc diur, vesp Ac lent Ci sp]
+14.9 +6.7 58 +16 +19 1030.9 985.1 0.1
25 км 8/0
[Ac trans Cs]
+16.3 +4.1 44 1030.1 984.5
СЗ 2 2500 м 8/0
[Ac lent Cs]
+16.7 +3.1 40 +17 +20 1029.4 984.0
СВ 2 25 км 5/1 600 м
[Cu hum Ac trans Cs]
+17.1 +2.0 36 +17 +19 1029.4 984.0
25 км 5/1 600 м
[Cu hum Ac lent Cs]
+16.8 +1.6 36 1029.3 983.9
З 2 25 км 3/0
[Ac trans Cs]
+13.8 +6.3 61 +13 +13 1029.6 983.7
С 1 25 км 4/0 2000 м
[Ac trans Cs]
+13.2 +7.5 68 +13 +13 1030.2 984.2 +17.4 0.1
З 2 25 км 3/0
[Ac trans Cs]
+12.9 +9.2 78 +12 +12 1030.6 984.5
СЗ 2 н/о н/о +10.3 +9.5 95 +9 +9 1031.3 984.8
С 1 н/о н/о +11.5 +5.0 64 +12 +12 1031.3 984.9
С 1 н/о н/о +10.5 +2.1 56 +11 +11 1031.3 984.8
СВ 3 н/о н/о +9.2 +0.9 56 +7 +7 1031.5 984.7
С 2
{5}
н/о н/о +9.6 +1.2 56 +8 +8 1031.5 984.9
С 1 н/о н/о +9.1 +1.4 59 +9 +9 1031.0 984.3
СВ 2
{6}
н/о н/о +9.9 +1.1 54 +9 +9 1030.5 983.9
С 2 н/о н/о +7.9 +1.6 64 +6 +6 1031.1 984.2
В 2 н/о н/о +7.8 +1.6 65 +6 +6 1030.8 983.9
В 2 н/о н/о +6.2 +2.3 76 +4 +4 1030.9 983.7
В 3 н/о н/о +5.8 +3.8 87 +2 +2 1031.3 984.0 +5.7
ЮВ 3 н/о н/о +4.2 +4.2 100 0 0 1031.6 984.1
ЮВ 2 н/о н/о +3.9 +3.9 100 +1 +1 1032.2 984.6
В 2 500 м туман 10/10 120 м
[Frnb]
+5.4 +5.4 100 +3 +3 1032.3 985.0
В 1
{5}
300 м туман 10/10 90 м
[St]
+6.2 +6.2 100 +5 +5 1032.5 985.3
С 1 1200 м в посл. час туман 10/10 120 м
[St]
+6.7 +6.7 100 +5 +5 1032.0 984.9
В 1 5000 м дымка {туман} 9/6 360 м
[Cu Sc Ac lent Cs]
+6.9 +6.9 100 +6 +7 1031.1 984.1
8000 м дымка 9/3 450 м
[Cu Sc Ac trans Cs]
+9.2 +9.2 100 1029.7 983.1
20 км 9/1 600 м
[Sc diur, vesp Ac trans Cs]
+10.1 +7.5 84 1028.8 982.3
С 1 20 км 9/0 2000 м
[Ac trans Cs]
+11.0 +7.7 80 +11 +12 1027.8 981.5
ЮВ 1 20 км 9/0
[Ac trans Cs]
+10.4 +7.9 84 +10 +11 1027.7 981.4
ЮВ 1 20 км 9/0
[Ac trans Cs]
+9.3 +7.5 89 +9 +9 1027.7 981.2
ЮВ 1 20 км 9/0 2000 м
[Ac trans Cs]
+8.6 +7.6 93 +8 +8 1027.8 981.2 +11.2
ЮВ 2 20 км 3/0
[Ac trans]
+8.4 +7.4 93 +6 +6 1028.1 981.4
ЮВ 2 н/о н/о +7.8 +7.8 100 +6 +6 1028.0 981.2
СЗ 1 н/о н/о +6.1 +6.1 100 +5 +5 1028.2 981.1
СЗ 1 н/о н/о +6.7 +6.7 100 +5 +5 1028.0 981.0
С 1 н/о н/о +6.6 +6.6 100 +5 +5 1028.0 981.0
Ю 1 н/о н/о +7.3 +7.3 100 +6 +6 1027.5 980.6
Ю 1 н/о н/о +6.7 +6.7 100 +5 +5 1027.1 980.2
штиль 0 н/о н/о +5.8 +5.8 100 +5 +5 1026.8 979.7
ЮВ 1 н/о н/о +6.3 +6.3 100 +5 +5 1026.2 979.3
З 1 н/о н/о +6.0 +6.0 100 +5 +5 1025.7 978.8
н/о н/о +6.6 +6.6 100 1025.1 978.2
З 2
{5}
н/о н/о +8.8 +8.8 100 +7 +7 1024.9 978.4 +5.2
З 2 н/о н/о +6.1 +6.1 100 +3 +3 1026.2 979.2 0.3
З 3 н/о н/о +8.3 +8.3 100 +5 +5 1026.0 979.4 0.5
З 2
{6}
15 км {дождь} 8/8 450 м
[Cu Sc Ac trans Cs]
+7.7 +7.7 100 +5 +6 1027.2 980.5
С 4-7
{7}
30 км 3/1 450 м
[Cu Sc Ac lent Cs]
+10.3 +6.6 78 +8 +9 1027.7 981.3
СЗ 5-7
{8}
25 км 3/1 450 м
[Cu Sc Cs]
+11.5 +4.1 60 +9 +11 1027.8 981.6
СЗ 5-9
{9}
30 км {дождь} 1/1 500 м
[Cu Sc Cs]
+12.0 +2.9 54 +10 +12 1027.5 981.4 0.8
СЗ 5-9
{10}
30 км 1/1 500 м
[Cu Sc Ci fib]
+12.7 +2.5 50 +11 +13 1027.4 981.4
СЗ 6-9
{12}
30 км 1/1 500 м
[Cu Sc Ci fib]
+12.6 +1.6 47 +10 +12 1027.5 981.5
СЗ 7-11
{13}
н/о н/о +12.1 +0.4 45 +10 +10 1027.7 981.6
СЗ 7-11
{11}
н/о н/о +10.9 +0.4 48 +8 +8 1028.3 982.0
СЗ 5-8
{13}
н/о н/о +9.5 +0.8 55 +7 +7 1029.4 982.9
Местоположение метеостанции Кастело Бранко (Португалия): широта 39.83 долгота -7.48 высота над уровнем моря 384 м.
В архиве по умолчанию представлена погода в Кастело Бранко за последнюю неделю. Архивные данные за месяц целиком и за предыдущие месяцы, начиная с января 2011 года, Вы можете получить, выбрав интересующий диапазон дат из раскрывающегося списка и нажав кнопку "Найти!".
*Определитесь, кто Вы:
Внимание! Время в таблицах - всемирное. Для получения местного времени необходимо прибавить поправку, которая равна 0 ч.
Смотрите также архив погоды в соседних городах и на ближайших метеорологических станциях:
Партнеры нашего сайта:      
Пояснения к столбцам:
  • Ветер - указаны скорость ветра в м/с - средняя за 10 мин, порывы в срок и между сроками (в фигурных скобках) и направление, откуда дует ветер: С - северный,
  • СВ - северо-восточный, В - восточный, ЮВ - юго-восточный, Ю - южный, ЮЗ - юго-западный, З - западный, СЗ - северо-западный.
  • Видимость - горизонтальная дальность видимости в метрах или километрах. При видимости от 1 до 10 км при отсутствии осадков обычно наблюдается дымка, при ухудшении видимости до 1 км и менее - туман. В сухую погоду видимость может ухудшаться дымом, пылью или мглою.
  • Явления - указаны атмосферные явления, наблюдавшиеся в срок или в последний час перед сроком; фигурными скобками обозначены явления, наблюдавшиеся между сроками (за 1-3 часа до срока); квадратными скобками обозначены град или гололедные отложения с указанием их диаметра в мм.
  • Облачность - указаны через наклонную черту общая и нижняя облачность в баллах и высота нижней границы облаков в метрах; квадратными скобками обозначены формы облаков: Ci - перистые, Cs - перисто-слоистые, Cc - перисто-кучевые, Ac - высококучевые, As - высокослоистые, Sc - слоисто-кучевые, Ns - слоисто-дождевые, Cu - кучевые, Cb - кучево-дождевые. Подробнее классификацию облаков см. в Атласе облаков (PDF).
  • T - Температура воздуха - температура, измеренная на высоте 2 м над землей.
  • Td - Температура точки росы - температура, при понижении до которой содержащийся в воздухе водяной пар достигнет насыщения.
  • f - Относительная влажность воздуха - влажноcть воздуха, измеренная на высоте 2 м над землей.
  • Te - Эффективная температура - температура, которую ощущает одетый по сезону человек в тени. Характеристика душности погоды. При расчете учитывается влияние влажности воздуха и скорости ветра на теплоощущения человека.
  • Tes - Эффективная температура на солнце - температура, которую ощущает человек, с поправкой на солнечный нагрев. Характеристика знойности погоды. Зависит от высоты солнца над горизонтом, облачности и скорости ветра. Ночью, в пасмурную погоду, а также при ветре 12 м/с и более поправка равна нулю.
  • P - Атмосферное давление - приведенное к уровню моря атмосферное давление.
  • Po - Атмосферное давление - измеренное на уровне метеостанции атмосферное давление.
  • Tmin - Минимальная температура - минимум температуры воздуха на высоте 2 м над землей.
  • Tmax - Максимальная температура - максимум температуры воздуха на высоте 2 м над землей.
  • R - Количество осадков - Количество выпавших осадков за период времени, мм. При наведении курсора мыши на число - период времени, за который выпало указанное количество осадков.
  • R24 - Количество осадков - Количество выпавших осадков за 24 часа, мм.
  • S - Снежный покров - Высота снежного покрова, см. При наведении курсора мыши на число - состояние снежного покрова и степень покрытия местности в баллах.